Regional Weather Roundup
Issued by NWS Sterling, VA

Home | Current Version | Previous Version | Text Only | Print | Product List | Glossary On
Versions: 1 2 3 4 5 6 7 8 9 10 11 12 13 14 15 16 17 18 19 20 21 22 23 24 25 26 27 28 29 30 31 32 33 34 35 36 37 38 39 40 41 42 43 44 45 46 47 48 49 50
000
ASUS41 KLWX 300411
RWRLWX

REGIONAL WEATHER ROUNDUP
NATIONAL WEATHER SERVICE BALTIMORE MD/WASHINGTON DC
1200 AM EDT SUN APR 30 2017

Note: "FAIR" indicates few or no clouds below 12,000 feet
with no significant weather and/or obstructions to visibility.
 TC=TEMPERATURE CELSIUS

 * =Non NWS site. Station does not report precipitation (e.g. rain,
    snow, etc.), thunder, or fog.

DCZ001-MDZ009-015-VAZ040>042-051-053>054-300500-
WASHINGTON METRO

CITY           SKY/WX    TMP DP  RH WIND       PRES   REMARKS
WASHINGTON NAT CLEAR     77  72  84 S10       30.07S
DULLES         CLEAR     76  69  79 S7        30.07S
ANDREWS AFB    CLEAR     76  70  80 S8        30.07S
FT BELVOIR     CLEAR     71  69  95 CALM      30.07S
QUANTICO       CLEAR     75  71  87 SW8       30.07F
COLLEGE PARK*  CLEAR     76  69  80 CALM      30.06F
LEESBURG*      CLEAR     72  72 100 CALM      30.07F
MANASSAS*        N/A     74  70  87 S5        30.07F

$$

MDZ006>007-011-014-300500-
BALTIMORE METRO

CITY           SKY/WX    TMP DP  RH WIND       PRES   REMARKS
BWI AIRPORT    PTCLDY    71  68  90 CALM      30.06S
MD SCIENCE CTR   N/A     78  62  57 MISG      30.06F
MARTIN STATE   MOCLDY    70  68  94 CALM      30.08S
ANNAPOLIS      CLEAR     70  69  97 CALM      30.05F
FORT MEADE*    CLEAR     66  64  94 CALM      30.08F

$$

MDZ012-015-019>023-300500-
MARYLAND EASTERN SHORE

CITY           SKY/WX    TMP DP  RH WIND       PRES   REMARKS
OCEAN CITY     CLEAR     74  69  85 W7        30.10F
SALISBURY      CLEAR     76  72  87 SW8       30.09S
BAY BRIDGE AP* CLEAR     73  70  88 S7        30.06F
CAMBRIDGE*     CLEAR     73  70  88 CALM      30.09S
EASTON*        CLEAR     77  70  79 SW3       30.11S

$$

MDZ017>025-300500-
SOUTHERN MARYLAND

CITY           SKY/WX    TMP DP  RH WIND       PRES   REMARKS
PATUXENT RIVER CLEAR     78  74  87 S9        30.08F
ST INIGOES     CLEAR     78  71  79 S3        30.08F
LEONARDTOWN*   CLEAR     77  70  78 SW5       30.10F

$$

MDZ003>005-300500-
NORTH CENTRAL MARYLAND

CITY           SKY/WX    TMP DP  RH WIND       PRES   REMARKS
FREDERICK*     NOT AVBL
HAGERSTOWN APT PTCLDY    72  62  71 CALM      30.08S
WESTMINSTER*   PTCLDY    70  64  83 NE3       30.10S

$$

MDZ501>502-300500-
WESTERN MARYLAND

CITY           SKY/WX    TMP DP  RH WIND       PRES   REMARKS
OAKLAND*         N/A     64  55  72 SE3       30.18S
CUMBERLAND*    PTCLDY    68  63  83 NW5       30.11S

$$

VAZ025>031-300500-
SHENANDOAH VALLEY

CITY           SKY/WX    TMP DP  RH WIND       PRES   REMARKS
WINCHESTER*    CLEAR     66  63  88 CALM      30.07S
FRONT ROYAL*   CLEAR     70  68  94 CALM      30.07S
LURAY*         CLEAR     70  68  94 CALM      30.09S
NEW MARKET*    PTCLDY    75  67  76 SW6       30.08S
STAUNTON*      PTCLDY    69  66  90 CALM      30.13S
WAYNESBORO*    CLEAR     74  69  85 S6        30.14S

$$

WVZ021-048>050-054>055-300500-
EASTERN WEST VIRGINIA PANHANDLE

CITY           SKY/WX    TMP DP  RH WIND       PRES   REMARKS
MARTINSBURG    PTCLDY    69  64  84 CALM      30.06S
PETERSBURG*    PTCLDY    63  62  97 E3        30.10S FOG

$$

VAZ036>039-050-300500-
CENTRAL FOOTHILLS

CITY           SKY/WX    TMP DP  RH WIND       PRES   REMARKS
CHARLOTTESVILL CLEAR     78  71  79 S8        30.09F
CULPEPER*      CLEAR     76  72  85 S5        30.08F
ORANGE*        CLEAR     72  70  94 CALM      30.09F
GORDONSVILLE*  CLEAR     70  70  98 CALM      30.09S
WARRENTON*     CLEAR     77  68  73 S6        30.07S

$$

VAZ055>057-300500-
NORTH AND CENTRAL PIEDMONT

CITY           SKY/WX    TMP DP  RH WIND       PRES   REMARKS
FREDERICKSBRG* CLEAR     78  72  81 S8        30.07S
STAFFORD*      CLEAR     76  73  90 S5        30.12S

$$

NCZ024-NYZ072-PAZ021-071-VAZ022-071-300500-
OTHER REGIONAL OBSERVATIONS

CITY           SKY/WX    TMP DP  RH WIND       PRES   REMARKS
NEW YORK CITY  CLOUDY    69  54  58 NW6       30.15R
PHILADELPHIA   MOCLDY    73  62  68 N8        30.10R
PITTSBURGH     CLOUDY    59  58  96 NE7       30.12F
ROANOKE        PTCLDY    76  69  79 S7        30.15S
RICHMOND       PTCLDY    74  71  91 S6        30.11S
RALEIGH        MOCLDY    76  71  85 S10       30.16S

$$

ANZ530>537-300500-
MARINE OBSERVATIONS

STATION/POSITION TIME  TEMP    WIND        PRES
                       AIR SEA DIR/SP/G
                 (UTC) (F)     (DEG/KT/KT) (MB)
THOMAS PT LIGHT  0400   70 63  180/ 11/ 12   N/A
BALT KEY BRIDGE  0342   74      10/  2/  2 1018.0F
COVE POINT       0342   80     230/  9/ 13 1019.3R
LEWISETTA        0342   79 73  240/  8/ 10 1018.8F
PINEY POINT      0342          150/  2/  3   N/A

$$




USA.gov is the U.S. government's official web portal to all federal, state and local government web resources and services.